Location: Flynn Junction
(40.1314°N, 99.5162°W)
Time: 21:24:44
(UTC+00:00)

SL-19 R/B - Pass Details

Date: 29 October 2020
Orbit: 358 x 808 km, 99.4° (Epoch: 01 December)

Event Time Altitude Azimuth Distance (km) Brightness Sun altitude
Rises 11:57:30 0° 6° (N) 2,197 7.4 -13.4°
Reaches altitude 10° 11:59:27 10° 358° (N) 1,353 6.2 -13.0°
Maximum altitude 12:02:07 38° 288° (WNW) 583 4.0 -12.5°
Drops below altitude 10° 12:04:54 10° 218° (SW) 1,415 6.1 -12.0°
Sets 12:07:00 0° 210° (SSW) 2,317 7.3 -11.6°
